TimeEST,TemperatureF,Dew PointF,Humidity,Sea Level PressureIn,VisibilityMPH,Wind Direction,Wind SpeedMPH,Gust SpeedMPH,PrecipitationIn,Events,Conditions,WindDirDegrees,DateUTC
12:53 AM,19.9,17.1,89,30.25,9.0,Calm,Calm,-,N/A,,Clear,0,2013-02-26 05:53:00
1:53 AM,19.9,17.1,89,30.25,8.0,Calm,Calm,-,N/A,,Clear,0,2013-02-26 06:53:00
2:53 AM,19.0,14.0,81,30.25,10.0,Calm,Calm,-,N/A,,Clear,0,2013-02-26 07:53:00
3:53 AM,19.0,16.0,88,30.23,9.0,Calm,Calm,-,N/A,,Clear,0,2013-02-26 08:53:00
4:53 AM,18.0,14.0,84,30.23,8.0,Calm,Calm,-,N/A,,Clear,0,2013-02-26 09:53:00
5:53 AM,17.1,14.0,88,30.23,9.0,East,4.6,-,N/A,,Clear,80,2013-02-26 10:53:00
6:53 AM,17.1,14.0,88,30.22,8.0,ENE,3.5,-,N/A,,Clear,70,2013-02-26 11:53:00
7:53 AM,21.9,18.0,85,30.23,7.0,Calm,Calm,-,N/A,,Clear,0,2013-02-26 12:53:00
8:53 AM,27.0,24.1,89,30.25,6.0,Calm,Calm,-,N/A,,Clear,0,2013-02-26 13:53:00
9:53 AM,33.1,25.0,72,30.22,10.0,Variable,3.5,-,N/A,,Clear,0,2013-02-26 14:53:00
10:53 AM,36.0,24.1,62,30.19,10.0,Variable,3.5,-,N/A,,Clear,0,2013-02-26 15:53:00
11:53 AM,39.9,25.0,55,30.17,10.0,SE,6.9,16.1,N/A,,Scattered Clouds,130,2013-02-26 16:53:00
12:53 PM,41.0,24.1,51,30.11,10.0,ESE,20.7,26.5,N/A,,Clear,120,2013-02-26 17:53:00
1:53 PM,41.0,23.0,49,30.09,10.0,SSE,15.0,23.0,N/A,,Clear,160,2013-02-26 18:53:00
2:53 PM,41.0,23.0,49,30.07,10.0,SE,9.2,17.3,N/A,,Clear,140,2013-02-26 19:53:00
3:53 PM,41.0,21.9,47,30.03,10.0,ESE,8.1,-,N/A,,Mostly Cloudy,110,2013-02-26 20:53:00
4:53 PM,41.0,23.0,49,30.01,10.0,ESE,4.6,-,N/A,,Overcast,110,2013-02-26 21:53:00
5:53 PM,39.9,24.1,53,30.00,10.0,ESE,10.4,-,N/A,,Overcast,110,2013-02-26 22:53:00
6:44 PM,37.4,28.4,70,29.97,4.0,ESE,9.2,-,0.00,Snow,Light Snow,110,2013-02-26 23:44:00
6:53 PM,36.0,30.0,79,30.00,2.0,ESE,8.1,-,0.01,Snow,Light Snow,120,2013-02-26 23:53:00
7:06 PM,35.6,30.2,81,29.96,4.0,East,6.9,-,0.01,Snow,Light Snow,80,2013-02-27 00:06:00
7:22 PM,35.6,30.2,81,29.95,3.0,East,11.5,18.4,0.01,Snow,Light Snow,90,2013-02-27 00:22:00
7:39 PM,33.8,30.2,87,29.93,3.0,ENE,8.1,21.9,0.05,Rain,Rain,70,2013-02-27 00:39:00
7:45 PM,33.8,30.2,87,29.92,4.0,ENE,9.2,-,0.06,Rain,Light Freezing Rain,60,2013-02-27 00:45:00
7:53 PM,34.0,30.9,89,29.94,4.0,East,10.4,19.6,0.08,Rain,Light Freezing Rain,80,2013-02-27 00:53:00
8:09 PM,33.8,30.2,87,29.89,5.0,East,10.4,18.4,0.01,Rain,Light Rain,80,2013-02-27 01:09:00
8:14 PM,35.6,30.2,81,29.89,6.0,East,11.5,18.4,0.01,Rain,Light Freezing Rain,80,2013-02-27 01:14:00
8:26 PM,35.6,30.2,81,29.89,6.0,ESE,18.4,25.3,0.02,Rain,Light Freezing Rain,110,2013-02-27 01:26:00
8:53 PM,35.1,30.0,82,29.91,6.0,ESE,17.3,24.2,0.03,Rain,Light Freezing Rain,110,2013-02-27 01:53:00
9:02 PM,35.6,30.2,81,29.88,6.0,East,12.7,26.5,0.01,Rain,Light Freezing Rain,100,2013-02-27 02:02:00
9:53 PM,34.0,30.0,85,29.88,4.0,East,17.3,24.2,0.09,Rain,Light Freezing Rain,100,2013-02-27 02:53:00
10:06 PM,33.8,30.2,87,29.85,5.0,East,12.7,21.9,0.02,Snow,Light Snow,90,2013-02-27 03:06:00
10:47 PM,33.8,30.2,87,29.87,1.8,Variable,4.6,-,0.11,Snow,Light Snow,0,2013-02-27 03:47:00
10:48 PM,34.0,30.0,85,29.90,1.8,East,5.8,-,0.11,Snow,Light Snow,80,2013-02-27 03:48:00
10:56 PM,33.8,30.2,87,29.86,1.5,East,8.1,-,0.01,Snow,Light Snow,80,2013-02-27 03:56:00
11:03 PM,33.8,30.2,87,29.85,1.0,ENE,8.1,-,0.02,Snow,Light Snow,60,2013-02-27 04:03:00
11:07 PM,33.8,30.2,87,29.84,0.8,NE,8.1,-,0.03,Snow,Light Snow,50,2013-02-27 04:07:00
11:43 PM,33.8,30.2,87,29.83,1.0,NE,8.1,-,0.09,Snow,Light Snow,40,2013-02-27 04:43:00
11:53 PM,33.1,30.9,92,29.84,1.0,NE,9.2,-,0.10,Snow,Light Snow,40,2013-02-27 04:53:00